Flag for USA

Past Weather in Wylie, Texas, USA — Yesterday and Last 2 Weeks

Now
80 °F

Sunny.


Feels Like: 84 °F
Forecast: 97 / 80 °F
Wind: 18 mph from Southwest

Location: Rockwall Muni

Current Time: Jul 14, 2020 at 9:35:14 am

Latest Report: Jul 14, 2020 at 8:55 am


Visibility: 10 mi

Pressure: 29.89 "Hg

Humidity: 80%

Dew Point: 73 °F

Location of WylieLocation

Past Weather in Wylie — Graph

°F

Wylie Temperature Yesterday

Maximum temperature yesterday: 100 °F (at 2:55 pm)
Minimum temperature yesterday: 80 °F (at 6:55 am)
Average temperature yesterday: 89 °F

High & Low Weather Summary for the Past Weeks

 TemperatureHumidityPressure
High100 °F (Jul 12, 4:55 pm)100% (Jul 1, 5:35 am)30.13 "Hg (Jul 1, 5:35 am)
Low72 °F (Jul 4, 6:35 am)36% (Jul 12, 4:55 pm)29.77 "Hg (Jun 30, 3:55 am)
Average84 °F75%29.91 "Hg
* Reported Jun 29 8:15 am — Jul 14 8:15 am, Wylie. Weather by CustomWeather, © 2020

Note: Actual official high and low records may vary slightly from our data, if they occured in-between our weather recording intervals... More about our weather records

Wylie Weather History for the Previous 24 Hours

Scroll right to see more
 ConditionsComfort  
Time TempWeatherWind HumidityBarometerVisibility
8:15 am
Tue, Jul 14
78 °FSunny.14 mph82%29.89 "Hg10 mi
7:55 am78 °FSunny.14 mph81%29.89 "Hg10 mi
7:35 am78 °FSunny.9 mph80%29.89 "Hg10 mi
7:15 am77 °FSunny.10 mph80%29.88 "Hg10 mi
6:55 am78 °FSunny.8 mph77%29.90 "Hg10 mi
6:35 am78 °FSunny.7 mph75%29.90 "Hg10 mi
6:15 am78 °FClear.9 mph72%29.88 "Hg10 mi
5:55 am79 °FClear.12 mph70%29.87 "Hg10 mi
5:35 am80 °FClear.10 mph68%29.86 "Hg10 mi
5:20 am80 °FClear.10 mph68%29.85 "Hg10 mi
4:55 am81 °FClear.10 mph68%29.85 "Hg10 mi
4:35 am81 °FClear.13 mph68%29.84 "Hg10 mi
4:20 am81 °FClear.12 mph69%29.84 "Hg10 mi
3:55 am82 °FClear.13 mph70%29.83 "Hg10 mi
3:35 am82 °FClear.12 mph73%29.83 "Hg10 mi
3:15 am82 °FClear.13 mph74%29.83 "Hg10 mi
2:55 am83 °FClear.13 mph74%29.83 "Hg10 mi
2:35 am83 °FClear.13 mph74%29.83 "Hg10 mi
2:15 am83 °FClear.13 mph74%29.83 "Hg10 mi
1:55 am84 °FClear.15 mph73%29.83 "Hg10 mi
12:55 am84 °FClear.12 mph74%29.84 "Hg10 mi
12:35 am85 °FClear.9 mph73%29.85 "Hg10 mi
12:15 am85 °FClear.9 mph72%29.85 "Hg10 mi
11:55 pm
Mon, Jul 13
86 °FClear.9 mph72%29.84 "Hg10 mi
11:35 pm86 °FClear.12 mph71%29.84 "Hg10 mi
11:15 pm86 °FClear.10 mph72%29.84 "Hg10 mi
10:55 pm86 °FClear.9 mph72%29.84 "Hg10 mi
10:35 pm86 °FClear.9 mph71%29.83 "Hg10 mi
10:15 pm87 °FClear.8 mph70%29.83 "Hg10 mi
9:55 pm87 °FClear.8 mph69%29.82 "Hg10 mi
9:35 pm88 °FClear.7 mph67%29.82 "Hg10 mi
9:15 pm88 °FClear.8 mph66%29.81 "Hg10 mi
8:55 pm89 °FClear.8 mph65%29.81 "Hg10 mi
8:35 pm90 °FClear.7 mph62%29.81 "Hg10 mi
7:55 pm92 °FSunny.8 mph59%29.82 "Hg10 mi
7:35 pm93 °FSunny.9 mph58%29.82 "Hg10 mi
6:55 pm95 °FSunny.13 mph56%29.82 "Hg10 mi
6:35 pm95 °FSunny.7 mph53%29.82 "Hg10 mi
6:15 pm97 °FSunny.13 mph51%29.82 "Hg10 mi
5:55 pm97 °FSunny.9 mph52%29.82 "Hg10 mi
5:35 pm97 °FSunny.8 mph51%29.83 "Hg10 mi
5:15 pm97 °FSunny.12 mph50%29.83 "Hg10 mi
4:55 pm100 °FSunny.14 mph47%29.83 "Hg10 mi
4:35 pm99 °FSunny.16 mph46%29.83 "Hg10 mi
4:15 pm98 °FSunny.13 mph46%29.83 "Hg10 mi
3:55 pm98 °FSunny.14 mph45%29.84 "Hg10 mi
3:35 pm100 °FSunny.16 mph44%29.84 "Hg10 mi
3:15 pm100 °FSunny.14 mph42%29.85 "Hg10 mi
2:55 pm100 °FSunny.14 mph41%29.85 "Hg10 mi
2:35 pm100 °FSunny.12 mph40%29.85 "Hg10 mi
2:20 pm100 °FSunny.16 mph40%29.86 "Hg10 mi
1:55 pm99 °FSunny.14 mph43%29.86 "Hg10 mi
1:35 pm99 °FSunny.12 mph46%29.87 "Hg10 mi
1:15 pm98 °FSunny.12 mph47%29.88 "Hg10 mi
12:55 pm97 °FSunny.12 mph51%29.88 "Hg10 mi
12:35 pm97 °FSunny.14 mph51%29.89 "Hg10 mi
12:15 pm96 °FSunny.10 mph51%29.89 "Hg10 mi
11:55 am95 °FSunny.10 mph53%29.89 "Hg10 mi
11:35 am94 °FSunny.7 mph57%29.90 "Hg10 mi
11:15 am93 °FSunny.7 mph56%29.90 "Hg10 mi
10:55 am92 °FSunny.8 mph57%29.90 "Hg10 mi
10:35 am91 °FSunny.9 mph60%29.91 "Hg10 mi
10:15 am90 °FSunny.8 mph61%29.91 "Hg10 mi
9:55 am89 °FSunny.8 mph64%29.91 "Hg10 mi
9:35 am88 °FSunny.6 mph66%29.91 "Hg10 mi
9:15 am86 °FSunny.9 mph70%29.91 "Hg10 mi
Weather by CustomWeather, © 2020

See weather overview